Terminal Aerodrome Forecast
Issued by NWS

Home | Current Version | Previous Version | Text Only | Print | Product List | Glossary Off
Versions: 1 2 3 4 5 6 7 8 9 10 11 12 13

000
FTUS43 KOAX 181100
TAFCDR
TAF
KCDR 181120Z 1812/1912 21007KT 4SM BR OVC007
      TEMPO 1812/1815 3/4SM BR OVC003
     FM181500 20012G20KT P6SM SKC
     FM181900 18016G28KT P6SM SKC
     FM190100 18022KT P6SM SKC
     FM190600 20013KT P6SM SKC=

USA.gov is the U.S. government's official web portal to all federal, state and local government web resources and services.